Regional Weather Roundup
Issued by NWS Albany, NY

Home | Current Version | Previous Version | Text Only | Print | Product List | Glossary On
Versions: 1 2 3 4 5 6 7 8 9 10 11 12 13 14 15 16 17 18 19 20 21 22 23 24 25 26 27 28 29 30 31 32 33 34 35 36 37 38 39 40 41 42 43 44 45 46 47 48 49
000
ASUS41 KALY 031010
RWRALY

NEW YORK STATE HOURLY WEATHER ROUNDUP
NATIONAL WEATHER SERVICE ALBANY NY
600 AM EDT THU SEP 03 2015

NOTE: "FAIR" INDICATES FEW OR NO CLOUDS BELOW 12,000 FEET WITH NO
SIGNIFICANT WEATHER AND/OR NO OBSTRUCTIONS TO VISIBILITY.

NYZ032-033-038>043-046>054-057>066-NYZ062>081-031100-
EAST


CITY           SKY/WX    TMP DP  RH WIND       PRES   REMARKS
ALBANY         PTCLDY    65  62  90 CALM      29.89R
GLENS FALLS    FOG       61  60  97 CALM      29.88S VSB 1/2
POUGHKEEPSIE   CLEAR     63  60  90 CALM      29.87S
NEWBURGH       CLEAR     64  64 100 CALM      29.89F
MONTGOMERY     FOG       61  61 100 CALM      29.88S VSB 1/4
WHITE PLAINS   CLEAR     67  64  90 NW5       29.87S
ISLIP          FOG       72  71  97 CALM      29.84S VSB 1/4
NEW YORK CITY  CLEAR     77  65  66 N3        29.85S
CENTRAL PARK   CLEAR     75  64  68 CALM      29.89S
$$

NYZ005>009-017-018-044>046-055-056-031100-
CENTRAL


CITY           SKY/WX    TMP DP  RH WIND       PRES   REMARKS
FULTON         FOG       66  64  93 CALM      29.91S VSB 1
SYRACUSE       PTCLDY    66  66 100 CALM      29.91R FOG
ROME           PTCLDY    62  61  96 CALM      29.93S
ELMIRA         FOG       65  65 100 W3        29.94S VSB 1/2
BINGHAMTON     CLEAR     64  64 100 CALM      29.96S FOG
MONTICELLO     PTCLDY    63  63 100 NW3       29.95S
$$

NYZ026>034-041>043-031100-
NORTH


CITY           SKY/WX    TMP DP  RH WIND       PRES   REMARKS
WATERTOWN      MOCLDY    67  65  93 CALM      29.90R FOG
FORT DRUM      NOT AVBL
MASSENA        CLOUDY    70  67  90 SW3       29.89R FOG
SARANAC LAKE   CLOUDY    65  64  97 CALM      29.93R FOG
PLATTSBURGH    PTCLDY    67  65  93 CALM      29.86S
$$

NYZ001>004-010>016-019>021-031100-
WEST


CITY           SKY/WX    TMP DP  RH WIND       PRES   REMARKS
NIAGARA FALLS  FOG       71  70  96 CALM      29.93S VSB 1/4
BUFFALO        PTCLDY    71  67  87 CALM      29.95R FOG
DUNKIRK        PTCLDY    69  66  90 SW6       29.95S
JAMESTOWN      PTCLDY    64  63  94 SW3       30.00S
WELLSVILLE     CLEAR     64  62  93 W3        30.02R FOG
ROCHESTER      MOCLDY    69  66  90 SW3       29.93R FOG
PENN YAN       MOCLDY    69  66  90 SW5       29.94R FOG
$$

             KEY
       WCI = WIND CHILL INDEX
       VSB = VISIBILITY
       HX  = HEAT INDEX
$$


USA.gov is the U.S. government's official web portal to all federal, state and local government web resources and services.